This is the latest recevied weather packets stored in our database for station/object KG5CK-1. If no packets are shown the sender has not sent any weather packets the latest 1 day(s).
| Time | Temp. | Humidity | Pressure | Rain* | Wind** | Luminosity | Snow |
|---|---|---|---|---|---|---|---|
| 1778063523 | 13.33° C | 79% | 1007.1 hPa | 0 mm | 0.89 m/s, 24° | - | - |
| 1778063463 | 13.33° C | 79% | 1007.1 hPa | 0 mm | 0.89 m/s, 24° | - | - |
| 1778063283 | 13.33° C | 79% | 1007.1 hPa | 0 mm | 2.24 m/s, 21° | - | - |
| 1778063163 | 13.33° C | 79% | 1007.1 hPa | 0 mm | 2.24 m/s, 21° | - | - |
| 1778063103 | 13.33° C | 79% | 1007 hPa | 0 mm | 0.89 m/s, 33° | - | - |
| 1778063043 | 13.33° C | 79% | 1007 hPa | 0 mm | 0.89 m/s, 33° | - | - |
| 1778062983 | 13.33° C | 79% | 1007 hPa | 0 mm | 0.89 m/s, 33° | - | - |
| 1778062923 | 13.33° C | 79% | 1007 hPa | 0 mm | 0.89 m/s, 33° | - | - |
| 1778062743 | 13.33° C | 79% | 1006.8 hPa | 0 mm | 1.79 m/s, 356° | - | - |
| 1778062563 | 13.33° C | 79% | 1006.8 hPa | 0 mm | 1.79 m/s, 356° | - | - |
| 1778062443 | 13.33° C | 78% | 1006.9 hPa | 0 mm | 1.79 m/s, 38° | - | - |
| 1778062383 | 13.33° C | 78% | 1006.9 hPa | 0 mm | 1.79 m/s, 38° | - | - |
| 1778062323 | 13.33° C | 78% | 1006.9 hPa | 0 mm | 1.79 m/s, 38° | - | - |
| 1778061963 | 13.33° C | 78% | 1006.6 hPa | 0 mm | 2.24 m/s, 20° | - | - |
| 1778061663 | 13.89° C | 78% | 1006.6 hPa | 0 mm | 0.89 m/s, 27° | - | - |
| 1778061483 | 13.89° C | 78% | 1006.7 hPa | 0 mm | 0.89 m/s, 24° | - | - |
| 1778061423 | 13.89° C | 78% | 1006.7 hPa | 0 mm | 0.89 m/s, 24° | - | - |
| 1778061363 | 13.89° C | 78% | 1006.7 hPa | 0 mm | 0.89 m/s, 24° | - | - |
| 1778061243 | 13.89° C | 78% | 1006.5 hPa | 0 mm | 1.34 m/s, 21° | - | - |
| 1778061183 | 13.89° C | 78% | 1006.5 hPa | 0 mm | 1.34 m/s, 21° | - | - |
| 1778061123 | 13.89° C | 78% | 1006.5 hPa | 0 mm | 1.34 m/s, 21° | - | - |
| 1778061003 | 13.89° C | 78% | 1006.5 hPa | 0 mm | 1.79 m/s, 0° | - | - |
| 1778060943 | 13.89° C | 78% | 1006.5 hPa | 0 mm | 1.79 m/s, 0° | - | - |
| 1778060763 | 13.89° C | 78% | 1006.5 hPa | 0 mm | 1.79 m/s, 0° | - | - |
| 1778060643 | 14.44° C | 78% | 1006.4 hPa | 0 mm | 1.34 m/s, 9° | - | - |
* Rain latest hour (hover to see other rain measurements)
** Current wind speed in m/s (hover to see current wind gust speed)